Weather History for Lexington, NE

Change the Weather History Date:

Tuesday, November 20, 2012

  Actual Average Record
Temperature  
Mean Temperature 46 °F -  
Max Temperature 70 °F 45 °F 70 °F (2012)
Min Temperature 22 °F 22 °F 6 °F (2000)
Degree Days  
Heating Degree Days 19    
Moisture  
Dew Point 28 °F    
Average Humidity 49    
Maximum Humidity 88    
Minimum Humidity 23    
Precipitation  
Precipitation 0.00 in - - ()
Sea Level Pressure  
Sea Level Pressure 30.14 in    
Wind  
Wind Speed 7 mph (SSW)    
Max Wind Speed 16 mph    
Max Gust Speed 23 mph    
Visibility 10 miles    
Events      
Averages and records for this station are not official NWS values.
T = Trace of Precipitation, MM = Missing Value Source: NWS Daily Summary

Daily Weather History Graph

Daily Weather History Graph

Search for Another Location

Airport:

Trip Planner

Search our weather history database for the weather conditions in past years. The results will help you decide how hot, cold, wet, or windy it might be!

Date:

Astronomy

Nov. 20, 2012 Rise Set
Actual Time 7:32 AM CST 5:16 PM CST
Civil Twilight 7:02 AM CST 5:46 PM CST
Nautical Twilight 6:29 AM CST 6:20 PM CST
Astronomical Twilight 5:56 AM CST 6:52 PM CST
Moon 1:06 PM CST (11/20) No Moon Set
Length of Visible Light 10h 43m
Length of Day
9h 44m
First Quarter, 51% of the Moon is Illuminated
Nov 20
First Quarter
Nov 28
Full
Dec 6
Last Quarter
Dec 13
New
Dec 19
First Quarter

Hourly Weather History & Observations

Time (CST) Temp. Windchill Dew Point Humidity Pressure Visibility Wind Dir Wind Speed Gust Speed Precip Events Conditions
12:15 AM 28.0 °F 21.7 °F 22.3 °F 79% 30.19 in 10.0 mi NW 5.8 mph - N/A   Clear
12:35 AM 28.8 °F 22.6 °F 23.2 °F 80% 30.20 in 10.0 mi NW 5.8 mph - N/A   Clear
12:55 AM 27.5 °F 22.2 °F 22.1 °F 80% 30.20 in 10.0 mi NNW 4.6 mph - N/A   Clear
1:15 AM 27.5 °F 23.6 °F 21.9 °F 80% 30.20 in 10.0 mi NW 3.5 mph - N/A   Clear
1:35 AM 27.1 °F 21.8 °F 21.7 °F 80% 30.20 in 10.0 mi West 4.6 mph - N/A   Clear
1:55 AM 27.0 °F 18.7 °F 21.7 °F 81% 30.20 in 10.0 mi West 8.1 mph - N/A   Clear
2:15 AM 26.4 °F 17.3 °F 21.2 °F 81% 30.20 in 10.0 mi WNW 9.2 mph - N/A   Clear
2:35 AM 27.5 °F 19.3 °F 22.3 °F 81% 30.20 in 10.0 mi WNW 8.1 mph - N/A   Clear
6:15 AM 24.1 °F - 20.3 °F 85% 30.20 in 10.0 mi Calm Calm - N/A   Clear
6:35 AM 23.7 °F - 20.1 °F 86% 30.20 in 10.0 mi Calm Calm - N/A   Clear
6:55 AM 23.4 °F - 19.6 °F 85% 30.20 in 10.0 mi Calm Calm - N/A   Clear
7:15 AM 22.5 °F - 19.4 °F 88% 30.20 in 10.0 mi Calm Calm - N/A   Clear
7:35 AM 23.0 °F - 19.6 °F 87% 30.20 in 7.0 mi Calm Calm - N/A   Clear
7:55 AM 23.0 °F - 19.4 °F 86% 30.20 in 4.0 mi Calm Calm - N/A   Clear
8:15 AM 25.7 °F - 21.6 °F 84% 30.21 in 7.0 mi Calm Calm - N/A   Clear
8:35 AM 28.6 °F - 23.2 °F 80% 30.21 in 10.0 mi Calm Calm - N/A   Clear
8:55 AM 32.4 °F - 25.3 °F 75% 30.21 in 10.0 mi Calm Calm - N/A   Clear
9:15 AM 38.1 °F 35.7 °F 28.4 °F 68% 30.21 in 10.0 mi SSE 3.5 mph - N/A   Clear
9:35 AM 41.5 °F 39.6 °F 30.6 °F 65% 30.21 in 10.0 mi West 3.5 mph - N/A   Clear
9:55 AM 44.6 °F - 31.3 °F 60% 30.21 in 10.0 mi Calm Calm - N/A   Clear
10:15 AM 46.4 °F - 32.0 °F 57% 30.20 in 10.0 mi Calm Calm - N/A   Clear
10:35 AM 49.1 °F - 32.4 °F 53% 30.20 in 10.0 mi Calm Calm - N/A   Clear
10:55 AM 56.3 °F - 32.5 °F 41% 30.19 in 10.0 mi SSW 4.6 mph - N/A   Clear
11:15 AM 60.3 °F - 31.3 °F 34% 30.19 in 10.0 mi SW 9.2 mph - N/A   Clear
11:35 AM 62.1 °F - 30.9 °F 31% 30.18 in 10.0 mi SW 9.2 mph - N/A   Clear
11:55 AM 64.2 °F - 31.1 °F 29% 30.18 in 10.0 mi SSW 10.4 mph - N/A   Clear
12:15 PM 64.9 °F - 30.7 °F 28% 30.17 in 10.0 mi SSW 11.5 mph - N/A   Clear
12:35 PM 66.2 °F - 30.9 °F 27% 30.16 in 10.0 mi SSW 11.5 mph - N/A   Clear
12:55 PM 67.1 °F - 30.9 °F 26% 30.15 in 10.0 mi SSW 12.7 mph 17.3 mph N/A   Clear
1:15 PM 68.0 °F - 31.1 °F 25% 30.14 in 10.0 mi SW 12.7 mph - N/A   Clear
1:35 PM 68.4 °F - 30.7 °F 25% 30.13 in 10.0 mi SW 13.8 mph - N/A   Clear
1:55 PM 69.8 °F - 30.7 °F 23% 30.12 in 10.0 mi SSW 16.1 mph 21.9 mph N/A   Clear
2:15 PM 69.1 °F - 30.9 °F 24% 30.11 in 10.0 mi SSW 13.8 mph - N/A   Clear
2:35 PM 69.4 °F - 30.9 °F 24% 30.11 in 10.0 mi SW 16.1 mph 19.6 mph N/A   Clear
2:55 PM 70.0 °F - 30.9 °F 24% 30.10 in 10.0 mi SSW 11.5 mph - N/A   Clear
3:15 PM 70.3 °F - 30.9 °F 23% 30.09 in 10.0 mi SSW 16.1 mph 21.9 mph N/A   Clear
3:35 PM 70.5 °F - 30.7 °F 23% 30.08 in 10.0 mi SSW 16.1 mph 23.0 mph N/A   Clear
3:55 PM 70.2 °F - 31.1 °F 24% 30.08 in 10.0 mi SSW 12.7 mph - N/A   Clear
4:15 PM 70.0 °F - 30.7 °F 23% 30.07 in 10.0 mi South 15.0 mph - N/A   Clear
4:35 PM 68.9 °F - 29.3 °F 23% 30.08 in 10.0 mi South 11.5 mph 17.3 mph N/A   Clear
4:55 PM 67.3 °F - 28.8 °F 24% 30.08 in 10.0 mi South 11.5 mph - N/A   Clear
5:15 PM 64.6 °F - 29.1 °F 26% 30.08 in 10.0 mi South 10.4 mph - N/A   Clear
5:35 PM 61.7 °F - 29.1 °F 29% 30.08 in 10.0 mi South 11.5 mph - N/A   Clear
5:55 PM 60.1 °F - 28.9 °F 31% 30.09 in 10.0 mi South 10.4 mph - N/A   Clear
6:15 PM 57.7 °F - 28.4 °F 33% 30.08 in 10.0 mi South 9.2 mph - N/A   Clear
6:35 PM 55.2 °F - 28.6 °F 36% 30.08 in 10.0 mi South 9.2 mph - N/A   Clear
6:55 PM 56.3 °F - 28.9 °F 35% 30.08 in 10.0 mi South 10.4 mph - N/A   Clear
7:15 PM 55.6 °F - 30.0 °F 38% 30.08 in 10.0 mi South 10.4 mph - N/A   Clear
7:35 PM 54.1 °F - 30.2 °F 40% 30.09 in 10.0 mi South 9.2 mph - N/A   Clear
7:55 PM 52.9 °F - 30.6 °F 43% 30.09 in 10.0 mi South 9.2 mph - N/A   Clear
8:15 PM 52.2 °F - 30.6 °F 44% 30.09 in 10.0 mi South 10.4 mph - N/A   Clear
8:35 PM 52.7 °F - 30.6 °F 43% 30.08 in 10.0 mi South 11.5 mph - N/A   Clear
8:55 PM 53.6 °F - 30.6 °F 41% 30.09 in 10.0 mi South 12.7 mph - N/A   Clear
9:15 PM 53.6 °F - 30.6 °F 41% 30.08 in 10.0 mi South 13.8 mph - N/A   Clear
9:35 PM 54.5 °F - 30.9 °F 41% 30.08 in 10.0 mi SSW 16.1 mph - N/A   Clear
9:55 PM 54.0 °F - 30.7 °F 41% 30.08 in 10.0 mi SSW 15.0 mph - N/A   Clear
10:15 PM 52.7 °F - 30.9 °F 43% 30.08 in 10.0 mi SSW 13.8 mph - N/A   Clear
10:35 PM 52.7 °F - 30.9 °F 43% 30.08 in 10.0 mi SSW 15.0 mph - N/A   Clear
10:55 PM 52.0 °F - 31.1 °F 45% 30.08 in 10.0 mi SSW 12.7 mph - N/A   Clear
11:15 PM 51.6 °F - 31.1 °F 45% 30.07 in 10.0 mi SSW 11.5 mph - N/A   Clear
11:35 PM 51.1 °F - 31.6 °F 47% 30.07 in 10.0 mi SSW 9.2 mph - N/A   Clear
11:55 PM 50.0 °F - 31.6 °F 49% 30.08 in 10.0 mi Calm Calm - N/A   Clear